Location: ??
(35.5052°N, 139.7262°E)
Time: 03:35:43
(UTC+00:00)

S3M - Pass Details

Date: 20 June 2021
Orbit: 949 x 1004 km, 83.0° (Epoch: 26 July)

Event Time Altitude Azimuth Distance (km) Brightness Sun altitude
Rises 17:53:38 0° 348° (NNW) 3,642 7.5 -15.8°
Reaches altitude 10° 17:56:10 10° 344° (NNW) 2,698 6.7 -15.4°
Maximum altitude 18:02:10 56° 268° (W) 1,145 4.1 -14.5°
Enters shadow 18:07:48 12° 193° (SSW) 2,571 5.7 -13.7°
